Location: Bullenkuhlen
(53.7689°N, 9.7495°E)
Time: 08:03:46
(UTC+00:00)

ATLAS CENTAUR R/B - Pass Details

Date: 09 April 2020
Orbit: 471 x 675 km, 64.7° (Epoch: 01 June)

Event Time Altitude Azimuth Distance (km) Brightness Sun altitude
Rises 20:15:04 0° 314° (NW) 2,711 6.7 -16.8°
Reaches altitude 10° 20:17:21 10° 317° (NW) 1,782 5.2 -17.0°
Maximum altitude 20:21:18 69° 41° (NE) 548 1.2 -17.4°
Enters shadow 20:22:26 42° 111° (ESE) 727 1.5 -17.6°
